Grant County, OR

10:20 AM PDT on July 22, 2017 (GMT -0700)
Grant County Regional

Weather History for KGCD - August, 2013

Change the Weather History Date:

Wednesday, August 7, 2013

  Actual Average (KBNO) Record (KBNO)
Temperature  
Mean Temperature 75 °F -  
Max Temperature 91 °F 86 °F 100 °F (1990)
Min Temperature 59 °F 44 °F 36 °F (1996)
Cooling Degree Days 10    
Growing Degree Days 25 (Base 50)    
Moisture  
Dew Point 33 °F    
Average Humidity 24    
Maximum Humidity 48    
Minimum Humidity 9    
Precipitation  
Precipitation 0.00 in - - ()
Sea Level Pressure  
Sea Level Pressure 30.02 in    
Wind  
Wind Speed 5 mph (WNW)    
Max Wind Speed 33 mph    
Max Gust Speed 43 mph    
Visibility 10 miles    
Events Rain , Thunderstorm    
Averages and records for this station are not official NWS values.
T = Trace of Precipitation, MM = Missing Value Source: NWS Daily Summary

Daily Weather History Graph

Daily Weather History Graph

Search for Another Location

Airport or City:

Trip Planner

Search our weather history database for the weather conditions in past years. The results will help you decide how hot, cold, wet, or windy it might be!

Date:

Astronomy

Aug. 07, 2013 Rise Set
Actual Time 5:50 AM PDT 8:12 PM PDT
Civil Twilight 5:17 AM PDT 8:44 PM PDT
Nautical Twilight 4:37 AM PDT 9:24 PM PDT
Astronomical Twilight 3:51 AM PDT 10:09 PM PDT
Moon 6:48 AM PDT (8/7) 8:16 PM PDT (8/7)
Length of Visible Light 15h 27m
Length of Day
14h 22m
New Moon, 1% of the Moon is Illuminated
Aug 7
New Moon
Aug 14
First Quarter
Aug 20
Full
Aug 28
Last Quarter
Sep 5
New

Hourly Weather History & Observations

Time (PDT) Temp. Dew Point Humidity Pressure Visibility Wind Dir Wind Speed Gust Speed Precip Events Conditions
12:15 AM 71.6 °F 40.5 °F 32% 30.03 in 10.0 mi Calm Calm - N/A   Clear
12:35 AM 71.2 °F 39.4 °F 31% 30.04 in 10.0 mi Calm Calm - N/A   Clear
12:55 AM 71.8 °F 39.6 °F 31% 30.03 in 10.0 mi West 4.6 mph - N/A   Clear
1:15 AM 69.1 °F 38.1 °F 32% 30.04 in 10.0 mi Calm Calm - N/A   Clear
1:35 AM 69.3 °F 38.8 °F 33% 30.04 in 10.0 mi Calm Calm - N/A   Clear
1:55 AM 66.9 °F 38.5 °F 35% 30.04 in 10.0 mi East 3.5 mph - N/A   Clear
2:15 AM 65.7 °F 38.1 °F 36% 30.04 in 10.0 mi Calm Calm - N/A   Clear
2:35 AM 65.7 °F 37.8 °F 36% 30.04 in 10.0 mi Calm Calm - N/A   Clear
2:55 AM 64.6 °F 36.7 °F 36% 30.04 in 10.0 mi Calm Calm - N/A   Clear
3:15 AM 62.1 °F 36.0 °F 38% 30.05 in 10.0 mi East 3.5 mph - N/A   Clear
3:35 AM 61.7 °F 37.4 °F 41% 30.05 in 10.0 mi East 5.8 mph - N/A   Clear
3:55 AM 61.7 °F 37.9 °F 41% 30.05 in 10.0 mi East 6.9 mph - N/A   Clear
4:15 AM 61.3 °F 36.9 °F 40% 30.04 in 10.0 mi East 8.1 mph - N/A   Clear
4:35 AM 61.2 °F 39.0 °F 44% 30.04 in 10.0 mi East 9.2 mph - N/A   Clear
4:55 AM 60.3 °F 39.4 °F 46% 30.04 in 10.0 mi East 8.1 mph - N/A   Clear
5:15 AM 59.5 °F 39.2 °F 47% 30.04 in 10.0 mi East 6.9 mph - N/A   Clear
5:35 AM 59.9 °F 40.1 °F 48% 30.04 in 10.0 mi East 9.2 mph - N/A   Clear
5:55 AM 60.3 °F 39.0 °F 45% 30.05 in 10.0 mi East 9.2 mph - N/A   Clear
6:15 AM 61.3 °F 37.4 °F 41% 30.05 in 10.0 mi East 8.1 mph - N/A   Clear
6:35 AM 61.0 °F 36.7 °F 40% 30.05 in 10.0 mi SE 5.8 mph - N/A   Clear
6:55 AM 62.2 °F 37.6 °F 40% 30.05 in 10.0 mi Calm Calm - N/A   Clear
7:15 AM 64.0 °F 37.8 °F 38% 30.05 in 10.0 mi NE 3.5 mph - N/A   Clear
7:35 AM 63.1 °F 37.4 °F 39% 30.06 in 10.0 mi ESE 5.8 mph - N/A   Clear
7:55 AM 64.8 °F 38.3 °F 38% 30.06 in 10.0 mi Calm Calm - N/A   Clear
8:15 AM 66.7 °F 38.3 °F 35% 30.06 in 10.0 mi Calm Calm - N/A   Clear
8:35 AM 69.4 °F 39.4 °F 33% 30.06 in 10.0 mi Calm Calm - N/A   Clear
8:55 AM 70.9 °F 39.9 °F 32% 30.06 in 10.0 mi West 3.5 mph - N/A   Clear
9:15 AM 73.0 °F 38.8 °F 29% 30.07 in 10.0 mi West 6.9 mph - N/A   Clear
9:35 AM 74.1 °F 37.2 °F 26% 30.07 in 10.0 mi WSW 9.2 mph - N/A   Clear
9:55 AM 75.4 °F 36.7 °F 25% 30.07 in 10.0 mi WSW 8.1 mph - N/A   Clear
10:15 AM 77.2 °F 36.5 °F 23% 30.06 in 10.0 mi WSW 8.1 mph - N/A   Clear
10:35 AM 78.1 °F 34.7 °F 21% 30.06 in 10.0 mi West 8.1 mph - N/A   Clear
10:55 AM 80.8 °F 31.3 °F 17% 30.05 in 10.0 mi WNW 6.9 mph - N/A   Clear
11:15 AM 82.6 °F 30.9 °F 15% 30.05 in 10.0 mi West 8.1 mph - N/A   Clear
11:35 AM 79.9 °F 32.2 °F 18% 30.04 in 10.0 mi WNW 8.1 mph - N/A   Clear
11:55 AM 83.1 °F 31.6 °F 16% 30.03 in 10.0 mi WNW 8.1 mph - N/A   Clear
12:15 PM 82.4 °F 32.0 °F 16% 30.03 in 10.0 mi West 5.8 mph - N/A   Clear
12:35 PM 84.6 °F 31.6 °F 15% 30.02 in 10.0 mi West 8.1 mph - N/A   Clear
12:55 PM 86.2 °F 31.1 °F 14% 30.01 in 10.0 mi West 8.1 mph - N/A   Clear
1:15 PM 87.3 °F 30.7 °F 13% 30.00 in 10.0 mi West 9.2 mph - N/A   Clear
1:35 PM 89.1 °F 28.4 °F 11% 30.00 in 10.0 mi West 8.1 mph - N/A   Clear
1:55 PM 91.2 °F 27.9 °F 10% 29.99 in 10.0 mi WNW 9.2 mph - N/A   Clear
2:15 PM 89.6 °F 26.4 °F 10% 29.98 in 10.0 mi West 10.4 mph - N/A   Clear
2:35 PM 91.4 °F 24.8 °F 9% 29.98 in 10.0 mi West 10.4 mph - N/A   Clear
2:55 PM 89.2 °F 25.3 °F 10% 29.98 in 10.0 mi West 13.8 mph 18.4 mph N/A   Clear
3:15 PM 88.3 °F 24.8 °F 10% 29.98 in 10.0 mi West 11.5 mph - N/A   Clear
3:35 PM 86.5 °F 23.5 °F 10% 29.98 in 10.0 mi West 12.7 mph - N/A Thunderstorm Thunderstorm
3:55 PM 84.0 °F 31.5 °F 15% 30.01 in 10.0 mi West 33.4 mph 42.6 mph N/A Rain , Thunderstorm Light Thunderstorms and Rain
4:15 PM 81.5 °F 36.3 °F 20% 30.01 in 10.0 mi ENE 15.0 mph 20.7 mph N/A Thunderstorm Mostly Cloudy
4:35 PM 80.6 °F 39.0 °F 23% 29.99 in 10.0 mi NNE 15.0 mph 18.4 mph N/A   Scattered Clouds
4:55 PM 84.0 °F 33.8 °F 16% 29.99 in 10.0 mi NNE 11.5 mph - N/A   Clear
5:15 PM 86.2 °F 32.2 °F 14% 29.98 in 10.0 mi NE 11.5 mph - N/A   Clear
5:35 PM 86.2 °F 32.2 °F 14% 29.98 in 10.0 mi NE 12.7 mph 21.9 mph N/A   Clear
5:55 PM 86.0 °F 30.4 °F 13% 29.97 in 10.0 mi ENE 13.8 mph 17.3 mph N/A   Clear
6:15 PM 85.1 °F 29.8 °F 14% 29.97 in 10.0 mi ENE 9.2 mph - N/A   Clear
6:35 PM 85.1 °F 28.8 °F 13% 29.96 in 10.0 mi NE 10.4 mph 18.4 mph N/A   Clear
6:55 PM 85.1 °F 29.5 °F 13% 29.96 in 5.0 mi East 4.6 mph - N/A   Haze
7:15 PM 84.6 °F 32.7 °F 16% 29.97 in 7.0 mi East 4.6 mph - N/A   Clear
7:35 PM 83.8 °F 32.9 °F 16% 29.97 in 10.0 mi East 3.5 mph - N/A   Clear
7:55 PM 82.8 °F 32.5 °F 16% 29.98 in 7.0 mi Calm Calm - N/A   Clear
8:15 PM 81.0 °F 32.0 °F 17% 29.99 in 10.0 mi WNW 3.5 mph - N/A   Clear
8:35 PM 80.8 °F 22.5 °F 12% 30.00 in 10.0 mi West 8.1 mph - N/A   Clear
8:55 PM 79.5 °F 23.0 °F 12% 30.01 in 10.0 mi West 6.9 mph - N/A   Clear
9:15 PM 78.8 °F 22.8 °F 13% 30.03 in 10.0 mi WNW 10.4 mph 16.1 mph N/A   Clear
9:35 PM 77.7 °F 22.3 °F 13% 30.03 in 10.0 mi WNW 6.9 mph - N/A   Clear
9:55 PM 75.9 °F 23.0 °F 14% 30.03 in 10.0 mi West 4.6 mph - N/A   Clear
10:15 PM 74.3 °F 23.4 °F 15% 30.04 in 10.0 mi SW 5.8 mph - N/A   Clear
10:35 PM 77.4 °F 27.5 °F 16% 30.01 in 10.0 mi NW 15.0 mph 26.5 mph N/A   Clear
10:55 PM 75.7 °F 32.0 °F 20% 30.04 in 10.0 mi West 13.8 mph - N/A   Clear
11:15 PM 74.8 °F 35.4 °F 24% 30.05 in 10.0 mi West 12.7 mph 17.3 mph N/A   Clear
11:35 PM 74.7 °F 36.0 °F 24% 30.05 in 10.0 mi West 13.8 mph 21.9 mph N/A   Clear
11:55 PM 73.4 °F 36.1 °F 26% 30.06 in 10.0 mi West 13.8 mph - N/A   Clear